Volver al catálogo

COSMOS 2251 DEB

ActivoLEO
NORAD 37961·DEBRIS·🇷🇺 Russia

Lanzado Jun 16, 1993 desde Plesetsk Cosmodrome

Loading…

Próximos Pases (próximas 24 horas)

TLE

EnvejeciendoSource: Space-Track

Época: Sep 12, 2026, 05:24 UTC

1 37961U 93036BPL 26255.22525765  .00001728  00000-0  36335-3 0  9992
2 37961  74.0449 336.1291 0040606 344.7307  15.2630 14.59858536840547

Sigue COSMOS 2251 DEB en tiempo real con AllMySat

Download on the App Store